Overview Statistics Trail Chart Weather Telemetry Raw packets
 

This is the latest recevied weather packets stored in our database for station/object KK7MLS-13. If no packets are shown the sender has not sent any weather packets the latest 10 day(s).

<< 88 89 90 91 92 93 94 >>
Time Temp. Humidity Pressure Rain* Wind** Luminosity Snow
1788025134 17.22° C 68% 1020.1 hPa 0 mm - 187 W/m² -
1788024842 17.22° C 68% 1020 hPa 0 mm - 420 W/m² -
1788024530 16.67° C 72% 1020.2 hPa 0 mm - 117 W/m² -
1788024228 16.67° C 75% 1019.9 hPa 0 mm - 154 W/m² -
1788023924 16.67° C 75% 1020 hPa 0 mm - 192 W/m² -
1788023620 16.67° C 77% 1020 hPa 0 mm - 296 W/m² -
1788023316 16.11° C 79% 1020 hPa 0 mm - 191 W/m² -
1788023010 16.11° C 80% 1020 hPa 0 mm - 226 W/m² -
1788022708 15.56° C 80% 1019.9 hPa 0 mm - 154 W/m² -
1788022406 15.56° C 81% 1020 hPa 0 mm - 153 W/m² -
1788022106 15.56° C 81% 1020 hPa 0 mm - 135 W/m² -
1788021801 15.56° C 83% 1020 hPa 0 mm - 115 W/m² -
1788021500 15.56° C 81% 1019.9 hPa 0 mm - 126 W/m² -
1788021199 15.56° C 81% 1019.8 hPa 0 mm - 143 W/m² -
1788020895 15.56° C 80% 1020 hPa 0 mm - 126 W/m² -
1788020590 16.11° C 81% 1019.9 hPa 0 mm - 161 W/m² -
1788020286 16.67° C 79% 1019.8 hPa 0 mm - 188 W/m² -
1788019982 16.67° C 82% 1019.8 hPa 0 mm - 271 W/m² -
1788019682 16.67° C 82% 1019.6 hPa 0 mm - 208 W/m² -
1788019381 16.11° C 86% 1019.9 hPa 0 mm - 183 W/m² -
1788019079 15° C 89% 1019.9 hPa 0 mm - 170 W/m² -
1788018774 15° C 86% 1019.9 hPa 0 mm - 205 W/m² -
1788018474 14.44° C 93% 1019.6 hPa 0 mm - 117 W/m² -
1788018173 13.89° C 92% 1019.7 hPa 0 mm - 150 W/m² -
1788017869 13.33° C 91% 1019.6 hPa 0 mm - 98 W/m² -

* Rain latest hour (hover to see other rain measurements)
** Current wind speed in m/s (hover to see current wind gust speed)